Station 46047 (LLNR 82) - TANNER BANK - 121 NM West of San Diego, CA Image indicating link to RSS feed of recent meteorological observations for station 46047


Conditions at 46047 as of
(3:30 pm PDT)
2230 GMT on 04/17/2024:
     

Click on the graph icon in the table below to see a time series plot of the last five days of that observation.

5-day plot - Wind Direction Wind Direction (WDIR): W ( 280 deg true )
5-day plot - Wind Speed Wind Speed (WSPD): 9.7 kts
5-day plot - Wind Gust Wind Gust (GST): 13.6 kts
5-day plot - Atmospheric Pressure Atmospheric Pressure (PRES):30.00 in
5-day plot - Air Temperature Air Temperature (ATMP): 58.5 °F
5-day plot - Water Temperature Water Temperature (WTMP): 59.2 °F
5-day plot - Dew Point Dew Point (DEWP): 57.2 °F
5-day plot - Wind Speed at 10 Meters Wind Speed at 10 meters (WSPD10M): 9.7 kts
5-day plot - Wind Speed at 20 Meters Wind Speed at 20 meters (WSPD20M): 11.7 kts
5-day plot -  Wind Speed, Wind Gust and Atmospheric Pressure Combined plot of Wind Speed, Gust, and Air Pressure
Supplemental Measurements
Highest 1-minute Wind Speed
Time (PDT)5-day plot - 1-Minute Wind Speed WSPD 5-day plot - 1-Minute Wind Direction WDIR
3:21 pm 11.7 kts-
Previous observations
TIME
(PDT)
5-day plot - Wind Direction
WDIR
 
5-day plot - Wind Speed
WSPD
kts
5-day plot - Wind Gust
GST
kts
5-day plot - Wave Height
WVHT
ft
5-day plot - Dominant Wave Period
DPD
sec
5-day plot - Average Wave Period
APD
sec
5-day plot - Mean Wave Direction
MWD
 
5-day plot - Atmospheric Pressure
PRES
in
5-day plot - Pressure Tendency
PTDY
in
5-day plot - Air Temperature
ATMP
°F
5-day plot - Water Temperature
WTMP
°F
5-day plot - Dew Point
DEWP
°F
5-day plot - Salinity
SAL
psu
5-day plot - Visibility
VIS
nmi
5-day plot - Tide (above MLLW)
TIDE
ft
2024-04-17 03:20 pm W 9.7 13.6 5.6 167.9WSW29.99- 58.5 59.2 57.0---
2024-04-17 03:10 pm W 9.7 13.6 5.6-7.9WSW30.00- 58.5 59.2 57.0---
2024-04-17 03:00 pm W 9.7 11.7----30.00-0.04 58.5 59.2 57.2---
2024-04-17 02:50 pmWNW 9.7 11.7 5.9 168.2SSW30.01- 58.3 59.2 57.0---
2024-04-17 02:40 pm W 9.7 13.6----30.01- 58.3 59.0 57.0---
2024-04-17 02:30 pm W 9.7 13.6----30.01- 58.3 59.0 57.2---
2024-04-17 02:20 pm W 9.7 11.7 5.6 167.9 SW30.01- 58.3 59.0 57.2---
2024-04-17 02:10 pm W 9.7 11.7 5.6-7.9 SW30.02- 58.3 59.0 57.4---
2024-04-17 02:00 pm W 9.7 11.7----30.02-0.02 58.3 59.0 57.4---
2024-04-17 01:50 pm W 9.7 11.7 5.6 177.9 S30.02- 58.1 59.0 57.2---
2024-04-17 01:40 pm W 9.7 11.7----30.03- 58.1 58.8 57.4---
2024-04-17 01:30 pm W 9.7 11.7----30.03- 58.1 58.8 57.4---
2024-04-17 01:20 pm W 9.7 13.6 5.6 177.9SSW30.03- 58.3 58.8 57.4---
2024-04-17 01:10 pm W 9.7 11.7----30.03- 58.3 58.6 57.4---
2024-04-17 01:00 pm W 9.7 13.6----30.03+0.01 58.1 58.6 57.2---
2024-04-17 12:50 pm W 9.7 13.6 5.6 178.0SSW30.03- 57.9 58.6 57.0---
2024-04-17 12:40 pm W 11.7 13.6----30.04- 57.9 58.5 57.0---
2024-04-17 12:30 pm W 9.7 13.6----30.03- 57.7 58.3 56.8---
2024-04-17 12:20 pm W 9.7 13.6 6.2 178.6SSW30.03- 57.7 57.9 56.8---
2024-04-17 12:10 pm W 9.7 13.6 6.2-8.6SSW30.03- 57.6 57.9 56.7---
2024-04-17 12:00 pm W 9.7 11.7----30.04+0.02 57.6 57.9 56.8---
2024-04-17 11:50 am W 7.8 11.7 5.9 177.9 SW30.04- 57.4 57.9 56.7---
2024-04-17 11:40 am W 7.8 11.7 5.9-7.9 SW30.04- 57.2 57.9 56.5---
2024-04-17 11:30 am W 9.7 11.7----30.04- 57.0 58.1 56.5---
2024-04-17 11:20 am W 7.8 9.7 6.2 178.0SSW30.04- 56.8 58.1 56.5---
2024-04-17 11:10 am W 7.8 11.7 6.2-8.0SSW30.04- 56.7 58.1 56.3---
2024-04-17 11:00 am W 7.8 9.7----30.04+0.01 56.7 58.1 56.3---
2024-04-17 10:50 am W 7.8 9.7 6.2 178.2 S30.04- 56.5 58.1 56.1---
2024-04-17 10:40 am W 5.8 9.7 6.2-8.2 S30.04- 56.5 58.1 56.1---
2024-04-17 10:30 am W 5.8 7.8----30.03- 56.5 58.3 56.1---
2024-04-17 10:20 am W 5.8 7.8 6.6 178.0 S30.03- 56.5 58.3 56.1---
2024-04-17 10:10 am W 5.8 9.7 6.6-8.0 S30.03- 56.3 58.3 55.9---
2024-04-17 10:00 am W 5.8 7.8----30.02+0.03 56.3 58.3 55.9---
2024-04-17 09:50 amWNW 7.8 11.7 6.2 177.7SSW30.03- 56.1 58.3 55.8---
2024-04-17 09:40 amWNW 7.8 11.7 6.2-7.7SSW30.03- 56.3 58.3 56.1---
2024-04-17 09:30 amWNW 9.7 11.7----30.03- 56.3 58.3 56.1---
2024-04-17 09:20 amWNW 9.7 11.7 6.2 117.5 NW30.03- 56.5 58.3 56.1---
2024-04-17 09:10 am W 9.7 11.7 6.2-7.5 NW30.03- 56.5 58.3 56.1---
2024-04-17 09:00 amWNW 7.8 11.7----30.02+0.01 56.7 58.3 56.3---
2024-04-17 08:50 am W 7.8 11.7 6.6 177.8 S30.02- 56.5 58.3 56.1---
2024-04-17 08:40 am W 7.8 11.7----30.01- 56.5 58.3 56.1---
2024-04-17 08:30 am W 7.8 11.7----30.02- 56.7 58.3 56.3---
2024-04-17 08:20 am W 7.8 11.7 6.6 177.8 SW30.02- 56.5 58.1 56.1---
2024-04-17 08:10 am W 9.7 13.6 6.6-7.8 SW30.02- 56.5 58.1 56.1---
2024-04-17 08:00 am W 9.7 13.6----30.03+0.03 56.8 58.1 56.5---
2024-04-17 07:50 am W 7.8 13.6 6.6 177.8 S30.03- 56.7 58.1 55.9---
2024-04-17 07:40 am W 7.8 9.7 6.6-7.8 S30.02- 56.5 58.1 55.8---
2024-04-17 07:30 am W 7.8 11.7----30.02- 56.5 58.1 55.8---
2024-04-17 07:20 am W 5.8 9.7 6.6 117.5 NW30.01- 56.5 58.1 55.6---
2024-04-17 07:10 am NW 5.8 7.8 6.6-7.5 NW30.00- 56.7 58.1 55.8---
2024-04-17 07:00 am NW 3.9 7.8----30.00+0.00 56.8 58.1 55.9---
2024-04-17 06:50 amWNW 7.8 9.7 7.5 178.0SSW30.00- 56.8 58.1 55.8---
2024-04-17 06:40 amWNW 7.8 11.7----30.01- 56.8 58.1 55.8---
2024-04-17 06:30 amWNW 9.7 11.7----30.01- 57.0 58.1 55.9---
2024-04-17 06:20 amWNW 9.7 11.7 6.9 177.4 S30.01- 57.0 58.1 55.8---
2024-04-17 06:10 amWNW 9.7 11.7 6.9-7.4 S30.01- 57.0 58.1 55.9---
2024-04-17 06:00 amWNW 9.7 13.6----30.01+0.00 57.0 58.1 56.1---
2024-04-17 05:50 amWNW 11.7 13.6 7.5 117.9 NW30.01- 56.8 58.1 55.9---
2024-04-17 05:40 amWNW 9.7 13.6----30.00- 57.0 58.1 56.3---
2024-04-17 05:30 amWNW 7.8 11.7----30.00- 57.0 58.1 56.5---
2024-04-17 05:20 amWNW 9.7 11.7 6.6 107.3 NW30.00- 57.0 58.1 56.7---
2024-04-17 05:10 amWNW 9.7 13.6 6.6-7.3 NW30.00- 57.0 58.1 56.7---
2024-04-17 05:00 amWNW 9.7 13.6----30.00-0.02 57.0 58.1 56.7---
2024-04-17 04:50 amWNW 7.8 9.7 6.6 107.1 NW29.99- 57.0 58.1 56.7---
2024-04-17 04:40 amWNW 7.8 9.7----30.00- 57.0 58.3 56.7---
2024-04-17 04:30 amWNW 7.8 9.7----29.99- 57.0 58.3 56.7---
2024-04-17 04:20 amWNW 7.8 9.7 7.2 107.4 NW29.99- 57.0 58.3 56.7---
2024-04-17 04:10 amWNW 7.8 9.7 7.2-7.4 NW30.00- 57.0 58.3 56.7---
2024-04-17 04:00 amWNW 7.8 9.7----29.99-0.05 57.0 58.3 56.7---
2024-04-17 03:50 amWNW 7.8 9.7 6.6 177.3 SW30.00- 57.0 58.3 56.7---
2024-04-17 03:40 amWNW 7.8 11.7 6.6-7.3 SW30.00- 57.0 58.1 56.7---
2024-04-17 03:30 amWNW 7.8 9.7----30.00- 57.0 58.1 56.7---
2024-04-17 03:20 amWNW 7.8 9.7 7.2 177.5 SW30.00- 57.0 58.1 56.7---
2024-04-17 03:10 amWNW 7.8 11.7 7.2-7.5 SW30.00- 57.2 58.1 56.8---
2024-04-17 03:00 amWNW 9.7 11.7----30.01-0.04 57.2 58.1 56.7---
2024-04-17 02:50 amWNW 9.7 13.6 7.2 177.4SSW30.01- 57.0 58.1 56.3---
2024-04-17 02:40 amWNW 9.7 13.6----30.01- 57.2 58.1 56.5---
2024-04-17 02:30 amWNW 11.7 13.6----30.02- 57.2 58.1 56.5---
2024-04-17 02:20 amWNW 9.7 13.6 6.6 177.0 SW30.02- 57.2 58.3 56.5---
2024-04-17 02:10 amWNW 11.7 13.6 6.6-7.0 SW30.02- 57.2 58.3 56.5---
2024-04-17 02:00 amWNW 11.7 13.6----30.02-0.01 57.2 58.3 56.3---
2024-04-17 01:50 amWNW 11.7 13.6 6.6 177.2 SW30.03- 57.2 58.3 56.3---
2024-04-17 01:40 am NW 11.7 15.5----30.03- 57.2 58.3 56.1---
2024-04-17 01:30 amWNW 11.7 15.5----30.04- 57.2 58.3 56.3---
2024-04-17 01:20 am NW 13.6 17.5 6.6 176.8 N30.04- 57.2 58.3 56.1---
2024-04-17 01:10 amWNW 13.6 17.5 6.6-6.8 N30.04- 57.2 58.3 56.3---
2024-04-17 01:00 amWNW 13.6 17.5----30.04+0.00 57.2 58.5 56.5---
2024-04-17 12:50 amWNW 13.6 17.5 6.6 116.9 NW30.05- 57.2 58.5 56.5---
2024-04-17 12:40 amWNW 13.6 17.5----30.05- 57.2 58.5 56.5---
2024-04-17 12:30 amWNW 13.6 15.5----30.05- 57.2 58.5 56.5---
2024-04-17 12:20 amWNW 11.7 15.5 6.2 176.7 S30.05- 57.2 58.6 56.5---
2024-04-17 12:10 amWNW 13.6 15.5 6.2-6.7 S30.04- 57.2 58.6 56.5---
2024-04-17 12:00 amWNW 13.6 15.5----30.04+0.01 57.2 58.6 56.5---
2024-04-16 11:50 pmWNW 13.6 17.5 6.2 126.7 NW30.04- 57.2 58.6 56.5---
2024-04-16 11:40 pmWNW 15.5 17.5 6.2-6.7 NW30.04- 57.2 58.6 56.5---
2024-04-16 11:30 pmWNW 15.5 19.4----30.04- 57.2 58.6 56.5---
2024-04-16 11:20 pmWNW 15.5 21.4 5.9 116.2 NW30.04- 57.4 58.6 56.7---
2024-04-16 11:10 pmWNW 15.5 17.5 5.9-6.2 NW30.04- 57.4 58.6 56.7---
2024-04-16 11:00 pmWNW 13.6 17.5----30.03+0.02 57.4 58.6 56.7---
2024-04-16 10:50 pmWNW 13.6 17.5 6.6 116.7 NW30.03- 57.4 58.6 56.7---
2024-04-16 10:40 pmWNW 13.6 17.5----30.03- 57.4 58.6 56.7---
2024-04-16 10:30 pmWNW 13.6 17.5----30.03- 57.4 58.6 56.5---
2024-04-16 10:20 pmWNW 13.6 17.5 6.6 196.8 S30.03- 57.4 58.6 56.7---
2024-04-16 10:10 pmWNW 15.5 19.4 6.6-6.8 S30.04- 57.4 58.6 56.7---
2024-04-16 10:00 pmWNW 13.6 17.5----30.04+0.02 57.4 58.6 56.7---
2024-04-16 09:50 pmWNW 13.6 15.5 6.6 127.0WNW30.03- 57.6 58.5 56.7---
2024-04-16 09:40 pmWNW 13.6 15.5----30.03- 57.6 58.5 56.7---
2024-04-16 09:30 pm NW 13.6 15.5----30.03- 57.6 58.5 56.5---
2024-04-16 09:20 pm NW 13.6 17.5 6.2 86.5 NW30.03- 57.6 58.5 56.3---
2024-04-16 09:10 pm NW 13.6 17.5 6.2-6.5 NW30.03- 57.7 58.5 56.5---
2024-04-16 09:00 pm NW 13.6 17.5----30.03+0.01 57.7 58.5 56.5---
2024-04-16 08:50 pm NW 13.6 17.5 6.2 86.7 NW30.03- 57.7 58.5 56.5---
2024-04-16 08:40 pm NW 13.6 19.4----30.03- 57.7 58.5 56.7---
2024-04-16 08:30 pm NW 13.6 17.5----30.02- 57.7 58.5 56.7---
2024-04-16 08:20 pm NW 15.5 17.5 6.6 176.8SSW30.02- 57.7 58.5 56.8---
2024-04-16 08:10 pm NW 13.6 17.5 6.6-6.8SSW30.02- 57.9 58.5 56.8---
2024-04-16 08:00 pm NW 13.6 19.4----30.02+0.00 57.9 58.5 56.8---
2024-04-16 07:50 pm NW 15.5 17.5 6.9 117.0 NW30.02- 57.7 58.5 56.5---
2024-04-16 07:40 pmWNW 13.6 17.5----30.02- 57.7 58.5 56.7---
2024-04-16 07:30 pmWNW 13.6 17.5----30.01- 57.9 58.5 56.8---
2024-04-16 07:20 pmWNW 15.5 17.5 6.6 86.7 NW30.01- 57.7 58.5 56.5---
2024-04-16 07:10 pm NW 13.6 17.5 6.6-6.7 NW30.02- 57.7 58.5 56.5---
2024-04-16 07:00 pmWNW 13.6 17.5----30.02-0.01 57.9 58.6 56.7---
2024-04-16 06:50 pmWNW 15.5 19.4 7.2 177.0ESE30.01- 57.7 58.6 56.3---
2024-04-16 06:40 pmWNW 15.5 21.4----30.01- 57.7 58.6 56.3---
2024-04-16 06:30 pmWNW 15.5 19.4----30.02- 57.6 58.6 56.1---
2024-04-16 06:20 pmWNW 15.5 21.4 6.6 86.5 NW30.02- 57.7 58.8 56.3---
2024-04-16 06:10 pmWNW 15.5 17.5 6.6-6.5 NW30.01- 58.1 58.8 56.7---
2024-04-16 06:00 pmWNW 15.5 17.5----30.02-0.02 58.1 58.8 56.7---
2024-04-16 05:50 pmWNW 13.6 17.5 6.6 96.7WNW30.01- 58.3 58.8 56.8---
2024-04-16 05:40 pmWNW 13.6 17.5----30.01- 58.1 58.8 56.7---
2024-04-16 05:30 pmWNW 13.6 17.5----30.01- 58.1 59.0 56.7---
2024-04-16 05:20 pmWNW 13.6 15.5 6.6 86.8 NW30.01- 58.1 59.0 56.7---
2024-04-16 05:10 pmWNW 13.6 17.5 6.6-6.8 NW30.01- 58.1 59.0 56.7---
2024-04-16 05:00 pmWNW 13.6 15.5----30.01+0.00 58.1 59.0 56.7---
2024-04-16 04:50 pmWNW 13.6 17.5 6.2 126.9 NW30.01- 58.1 59.2 56.7---
2024-04-16 04:40 pmWNW 13.6 17.5----30.01- 58.1 59.2 56.7---
2024-04-16 04:10 pmWNW 13.6 15.5 6.6-7.1 NW30.02- 58.3- 56.8---
2024-04-16 04:00 pmWNW 15.5 17.5----30.02-0.02 58.3 59.2 56.7---
2024-04-16 03:50 pmWNW 13.6 17.5 7.2 87.3 NW30.03- 58.3 59.2 56.8---

Detailed Wave Summary
for 46047 as of (3:10 pm PDT)
2210 GMT on 04/17/2024:

These wave data are displayed in rounded times.

     

Click on the graph icon in the table below to see a time series plot of the last five days of that observation.

5-day plot - Significant Wave Height Significant Wave Height (WVHT): 5.6 ft
5-day plot - Swell Height Swell Height (SwH): 5.2 ft
5-day plot - Swell Period Swell Period (SwP): 16.0 sec
5-day plot - Swell Direction Swell Direction (SwD):WSW
5-day plot - Wind Wave Height Wind Wave Height (WWH): 1.6 ft
5-day plot - Wind Wave Period Wind Wave Period (WWP): 4.5 sec
5-day plot - Wind Wave Direction Wind Wave Direction (WWD):WNW
5-day plot - Wave Steepness Wave Steepness (STEEPNESS): SWELL
5-day plot - Average Wave Period Average Wave Period (APD): 7.9 sec
Previous observations
TIME
(PDT)
5-day plot - Wave Height
WVHT
ft
5-day plot - Swell Height
SwH
ft
5-day plot - Swell Period
SwP
sec
5-day plot - Swell Direction
SwD
 
5-day plot - Wind Wave Height
WWH
ft
5-day plot - Wind Wave Period
WWP
sec
5-day plot - Wind Wave Direction
WWD
 
5-day plot - Wave Steepness
STEEPNESS
 
5-day plot - Average Wave Period
APD
sec
2024-04-17 02:40 pm 5.9 5.6 16.0SSW 1.6 5.0 WNW SWELL 8.2
2024-04-17 02:10 pm 5.6 5.2 16.0 SW 1.6 4.5 NW SWELL 7.9
2024-04-17 01:40 pm 5.6 5.6 17.4 S 2.0 4.5 WNW SWELL 7.9
2024-04-17 01:10 pm 5.6 5.2 17.4SSW 1.6 4.3 NW SWELL 7.9
2024-04-17 12:40 pm 5.6 5.2 17.4SSW 1.6 4.8 NW SWELL 8.0
2024-04-17 12:10 pm 6.2 5.9 17.4SSW 1.6 4.0 WNW SWELL 8.6
2024-04-17 11:40 am 5.9 5.9 17.4 SW 1.3 3.8 WNW SWELL 7.9
2024-04-17 11:10 am 6.2 6.2 17.4SSW 1.3 4.0 WNW SWELL 8.0
2024-04-17 10:40 am 6.2 6.2 17.4 S 1.3 3.6 WNW SWELL 8.2
2024-04-17 10:10 am 6.6 6.6 17.4 S 1.3 4.0 WNW SWELL 8.0
2024-04-17 09:40 am 6.2 6.2 17.4SSW 1.3 4.0 WNW SWELL 7.7
2024-04-17 09:10 am 6.2 6.2 11.4 NW 1.6 4.2 WNW SWELL 7.5
2024-04-17 08:40 am 6.6 6.6 17.4 S 1.6 3.8 WNW SWELL 7.8
2024-04-17 08:10 am 6.6 6.6 17.4 SW 1.6 4.0 WNW SWELL 7.8
2024-04-17 07:40 am 6.6 6.6 17.4 S 1.3 3.8 WNW SWELL 7.8
2024-04-17 07:10 am 6.6 6.6 11.4 NW 1.3 3.4 WNW SWELL 7.5
2024-04-17 06:40 am 7.5 7.2 17.4SSW 1.6 4.2 WNW SWELL 8.0
2024-04-17 06:10 am 6.9 6.6 17.4 S 2.0 4.5 WNW SWELL 7.4
2024-04-17 05:40 am 7.5 7.5 11.4 NW 2.0 4.5 WNW SWELL 7.9
2024-04-17 05:10 am 6.6 6.2 10.0 NW 2.0 4.5 WNW AVERAGE 7.3
2024-04-17 04:40 am 6.6 6.2 10.0 NW 1.6 3.2 WNW SWELL 7.1
2024-04-17 04:10 am 7.2 6.9 10.0 NW 1.3 3.6 WNW AVERAGE 7.4
2024-04-17 03:40 am 6.6 6.2 17.4 SW 1.6 3.8 WNW SWELL 7.3
2024-04-17 03:10 am 7.2 6.9 17.4 SW 1.6 4.0 WNW SWELL 7.5
2024-04-17 02:40 am 7.2 6.6 17.4SSW 2.6 3.8 WNW SWELL 7.4
2024-04-17 02:10 am 6.6 5.9 17.4 SW 2.6 4.5 WNW SWELL 7.0
2024-04-17 01:40 am 6.6 5.9 17.4 SW 3.0 5.6 WNW SWELL 7.2
2024-04-17 01:10 am 6.6 5.6 17.4 N 3.3 5.9 NW SWELL 6.8
2024-04-17 12:40 am 6.6 5.6 11.4 NW 3.3 4.5 WNW SWELL 6.9
2024-04-17 12:10 am 6.2 5.2 17.4 S 3.3 5.0 NW SWELL 6.7
2024-04-16 11:40 pm 6.2 5.2 12.1 NW 3.3 5.9 NW SWELL 6.7
2024-04-16 11:10 pm 5.9 4.6 11.4 NW 3.6 5.9 NW SWELL 6.2
2024-04-16 10:40 pm 6.6 5.6 11.4 NW 3.6 6.2 NW SWELL 6.7
2024-04-16 10:10 pm 6.6 5.2 19.0 S 3.9 7.1 NW SWELL 6.8
2024-04-16 09:40 pm 6.6 5.9 12.1WNW 3.0 5.3 WNW SWELL 7.0
2024-04-16 09:10 pm 6.2 5.2 8.3 NW 3.6 5.9 NW AVERAGE 6.5
2024-04-16 08:40 pm 6.2 5.2 7.7 NW 3.6 6.2 NW STEEP 6.7
2024-04-16 08:10 pm 6.6 5.6 17.4SSW 3.3 4.2 WNW SWELL 6.8
2024-04-16 07:40 pm 6.9 6.2 11.4 NW 3.0 5.9 WNW SWELL 7.0
2024-04-16 07:10 pm 6.6 5.6 7.7 NW 3.6 6.7 NW STEEP 6.7
2024-04-16 06:40 pm 7.2 5.9 17.4ESE 4.3 4.5 WNW SWELL 7.0
2024-04-16 06:10 pm 6.6 5.2 8.3 NW 3.6 6.2 NW AVERAGE 6.5
2024-04-16 05:40 pm 6.6 5.6 9.1WNW 3.3 5.3 NW AVERAGE 6.7
2024-04-16 05:10 pm 6.6 5.6 8.3 NW 3.3 5.3 NW AVERAGE 6.8
2024-04-16 04:40 pm 6.2 5.2 12.1 NW 3.6 6.7 NW SWELL 6.9
2024-04-16 04:10 pm 6.6 5.9 8.3 NW 3.0 5.6 WNW AVERAGE 7.1

Plot of wave energy versus frequency (and period)